GW1622 Weather Reports


Display with metric or nautical units.
time (UTC)temp
F
wind
direction
speed
MPH
gust
MPH
rain 1hr
in
rain 24hr
in
rain mn
in
humidity
%
barometer
mb
20260906073041 71 0 0.0 1.0 0.00 0.00 0.00 89 1013.0
20260906072520 71 0 0.0 1.0 0.00 0.00 0.00 89 1013.2
20260906072024 71 0 0.0 2.0 0.00 0.00 0.00 89 1013.1
20260906071541 71 0 0.0 2.0 0.00 0.00 0.00 89 1013.0
20260906071019 71 0 0.0 4.0 0.00 0.00 0.00 89 1013.0
20260906070518 71 0 0.0 4.0 0.00 0.00 0.00 89 1013.0
20260906070039 71 0 1.0 4.0 0.00 0.00 0.00 89 1013.0
20260906065518 71 360 0.0 2.0 0.00 0.00 0.00 89 1013.0
20260906065021 71 0 0.0 0.0 0.00 0.00 0.00 89 1012.9
20260906064537 71 0 0.0 1.0 0.00 0.00 0.00 89 1013.0
20260906064019 72 0 0.0 1.0 0.00 0.00 0.00 89 1013.1
20260906063518 72 0 0.0 0.0 0.00 0.00 0.00 88 1013.1
20260906063038 72 0 0.0 1.0 0.00 0.00 0.00 88 1013.0
20260906062520 72 0 0.0 1.0 0.00 0.00 0.00 88 1013.1
20260906062017 72 0 0.0 1.0 0.00 0.00 0.00 87 1013.1
20260906061539 72 0 0.0 1.0 0.00 0.00 0.00 87 1013.0
20260906061017 72 0 0.0 1.0 0.00 0.00 0.00 87 1013.0
20260906060524 72 0 0.0 1.0 0.00 0.00 0.00 86 1012.8
20260906060045 72 0 0.0 1.0 0.00 0.00 0.00 86 1012.8
20260906055520 72 360 0.0 1.0 0.00 0.00 0.00 85 1012.8
20260906055020 72 0 0.0 1.0 0.00 0.00 0.00 85 1012.8
20260906054540 72 0 0.0 1.0 0.00 0.00 0.00 84 1012.9
20260906054016 72 0 0.0 1.0 0.00 0.00 0.00 84 1012.8
20260906053519 72 0 0.0 1.0 0.00 0.00 0.00 84 1012.9
20260906053038 72 360 0.0 1.0 0.00 0.00 0.00 84 1013.0
20260906052518 71 0 0.0 1.0 0.00 0.00 0.00 84 1013.0
20260906052018 72 0 0.0 1.0 0.00 0.00 0.00 85 1013.0
20260906051537 72 0 0.0 2.0 0.00 0.00 0.00 85 1013.0
20260906051020 72 0 0.0 2.0 0.00 0.00 0.00 85 1013.1
20260906050517 72 0 0.0 1.0 0.00 0.00 0.00 84 1013.1
20260906050043 72 0 0.0 1.0 0.00 0.00 0.00 84 1012.9
20260906045518 73 0 0.0 1.0 0.00 0.00 0.00 85 1013.0
20260906045018 73 0 0.0 1.0 0.00 0.00 0.00 84 1013.0
20260906044538 72 0 0.0 0.0 0.00 0.00 0.00 82 1013.0
20260906044021 72 0 0.0 1.0 0.00 0.00 0.00 84 1012.9
20260906043518 71 0 0.0 1.0 0.00 0.00 0.00 84 1012.9
20260906043036 71 0 0.0 1.0 0.00 0.00 0.00 85 1012.9
20260906042518 71 0 0.0 1.0 0.00 0.00 0.00 86 1013.1
20260906042020 71 0 0.0 0.0 0.00 0.00 0.00 86 1012.9
20260906041541 71 0 0.0 0.0 0.00 0.00 0.00 87 1012.9
20260906041018 71 0 0.0 0.0 0.00 0.00 0.00 87 1012.9
20260906040517 71 0 0.0 0.0 0.00 0.00 0.00 88 1012.9
20260906040046 71 0 0.0 0.0 0.00 0.00 0.00 88 1012.7
20260906035519 71 0 0.0 0.0 0.00 0.00 0.00 88 1013.0
20260906035018 71 0 0.0 1.0 0.00 0.00 0.00 88 1013.0
20260906034542 71 0 0.0 1.0 0.00 0.00 0.00 88 1012.9
20260906034017 71 0 0.0 2.0 0.00 0.00 0.00 88 1012.8
20260906033520 72 360 0.0 2.0 0.00 0.00 0.00 88 1012.7
20260906033037 72 0 0.0 2.0 0.00 0.00 0.00 88 1012.8
20260906032521 72 360 0.0 2.0 0.00 0.00 0.00 88 1012.8
20260906032020 72 360 0.0 3.0 0.00 0.00 0.00 87 1012.9
20260906031538 72 0 0.0 3.0 0.00 0.00 0.00 87 1012.7
20260906031021 72 360 1.0 3.0 0.00 0.00 0.00 87 1012.7
20260906030522 72 360 1.0 4.0 0.00 0.00 0.00 87 1012.6
20260906030041 72 0 0.0 4.0 0.00 0.00 0.00 87 1012.5
20260906025518 72 350 1.0 2.0 0.00 0.00 0.00 87 1012.5
20260906025018 72 9 1.0 2.0 0.00 0.00 0.00 87 1012.5
20260906024541 72 306 1.0 2.0 0.00 0.00 0.00 87 1012.5
20260906024020 72 360 0.0 3.0 0.00 0.00 0.00 87 1012.4
20260906023518 71 0 0.0 3.0 0.00 0.00 0.00 87 1012.4
20260906023043 72 0 0.0 6.0 0.00 0.00 0.00 87 1012.4
20260906022518 72 0 1.0 6.0 0.00 0.00 0.00 87 1012.4
20260906022021 72 352 0.0 4.0 0.00 0.00 0.00 87 1012.5
20260906021545 72 352 1.0 4.0 0.00 0.00 0.00 87 1012.3
20260906021019 72 350 2.0 5.0 0.00 0.00 0.00 87 1012.4
20260906020518 72 13 2.0 5.0 0.00 0.00 0.00 87 1012.4
20260906020042 72 14 1.0 3.0 0.00 0.00 0.00 87 1012.5
20260906015517 72 0 0.0 3.0 0.00 0.00 0.00 86 1012.4
20260906015017 72 0 0.0 5.0 0.00 0.00 0.00 86 1012.5
20260906014545 72 5 1.0 5.0 0.00 0.00 0.00 86 1012.5
20260906014018 72 0 0.0 2.0 0.00 0.00 0.00 85 1012.6
20260906013517 72 0 0.0 3.0 0.00 0.00 0.00 85 1012.4
20260906013036 73 0 0.0 5.0 0.00 0.00 0.00 85 1012.5
20260906012518 73 44 0.0 5.0 0.00 0.00 0.00 85 1012.6
20260906012021 73 0 1.0 5.0 0.00 0.00 0.00 84 1012.6
20260906011540 73 37 1.0 5.0 0.00 0.00 0.00 84 1012.6
20260906011020 73 16 0.0 3.0 0.00 0.00 0.00 84 1012.7
20260906010520 73 297 0.0 3.0 0.00 0.00 0.00 83 1012.7
20260906010043 73 0 0.0 4.0 0.00 0.00 0.00 83 1012.7
20260906005521 73 49 0.0 4.0 0.00 0.00 0.00 82 1012.5
20260906005024 73 30 0.0 5.0 0.00 0.00 0.00 82 1012.5
20260906004544 74 0 0.0 5.0 0.00 0.00 0.00 82 1012.5
20260906004027 74 5 0.0 5.0 0.00 0.00 0.00 81 1012.7
20260906003518 74 29 1.0 5.0 0.00 0.00 0.00 81 1012.5
20260906003043 74 13 2.0 6.0 0.00 0.00 0.00 81 1012.4
20260906002518 74 0 1.0 7.0 0.00 0.00 0.00 81 1012.4
20260906002020 74 277 2.0 7.0 0.00 0.00 0.00 81 1012.5
20260906001541 74 37 1.0 4.0 0.00 0.00 0.00 81 1012.5
20260906001020 75 0 1.0 4.0 0.00 0.00 0.00 81 1012.7
20260906000520 75 19 1.0 5.0 0.00 0.00 0.00 81 1012.6
20260906000043 75 74 2.0 5.0 0.00 0.00 0.00 81 1012.6
20260905235520 75 360 0.0 9.0 0.00 0.00 0.00 81 1012.6
20260905235020 75 0 2.0 9.0 0.00 0.00 0.00 81 1012.6
20260905234538 75 30 3.0 9.0 0.00 0.00 0.00 81 1012.6
20260905234026 75 63 3.0 9.0 0.00 0.00 0.00 80 1012.7
20260905233518 75 352 3.0 8.0 0.00 0.00 0.00 79 1012.6
20260905233059 76 0 2.0 8.0 0.00 0.00 0.00 78 1012.7
20260905232523 76 58 1.0 5.0 0.00 0.00 0.00 79 1012.7
20260905232020 77 352 1.0 5.0 0.00 0.00 0.00 78 1012.5
20260905231551 77 5 2.0 10.0 0.00 0.00 0.00 77 1012.7
20260905231019 77 63 3.0 10.0 0.00 0.00 0.00 75 1012.7
20260905230524 77 352 1.0 7.0 0.00 0.00 0.00 75 1012.6
20260905230039 78 19 2.0 7.0 0.00 0.00 0.00 73 1012.7
20260905225521 78 125 2.0 9.0 0.00 0.00 0.00 73 1012.8
20260905225020 77 40 1.0 9.0 0.00 0.00 0.00 72 1012.9
20260905224554 77 82 2.0 8.0 0.00 0.00 0.00 70 1012.7
20260905224018 78 352 1.0 5.0 0.00 0.00 0.00 72 1012.9
20260905223522 79 43 0.0 6.0 0.00 0.00 0.00 73 1012.8
20260905223041 79 17 2.0 6.0 0.00 0.00 0.00 74 1012.9
20260905222522 78 289 1.0 9.0 0.00 0.00 0.00 75 1012.9
20260905222017 78 22 1.0 9.0 0.00 0.00 0.00 77 1012.9
20260905221541 77 349 2.0 12.0 0.00 0.00 0.00 76 1013.0
20260905221024 77 80 3.0 12.0 0.00 0.00 0.00 77 1013.0
20260905220525 78 16 2.0 12.0 0.00 0.00 0.00 76 1013.3
20260905220048 78 94 1.0 5.0 0.00 0.00 0.00 76 1013.2
20260905215518 78 38 1.0 4.0 0.00 0.00 0.00 76 1013.2
20260905215018 78 65 1.0 8.0 0.00 0.00 0.00 75 1013.3
20260905214541 78 141 2.0 8.0 0.00 0.00 0.00 74 1013.4
20260905214017 78 144 2.0 8.0 0.00 0.00 0.00 75 1013.3
20260905213520 78 34 1.0 9.0 0.00 0.00 0.00 75 1013.4
20260905213042 78 247 3.0 9.0 0.00 0.00 0.00 76 1013.4
20260905212519 77 313 3.0 9.0 0.00 0.00 0.00 76 1013.5
20260905212026 78 74 2.0 9.0 0.00 0.00 0.00 75 1013.6
20260905211540 76 275 3.0 9.0 0.00 0.00 0.00 77 1013.6
20260905211019 77 116 1.0 9.0 0.00 0.00 0.00 75 1013.7
20260905210519 78 9 1.0 9.0 0.00 0.00 0.00 75 1013.7
20260905210042 78 26 2.0 9.0 0.00 0.00 0.00 75 1013.7
20260905205520 76 42 2.0 9.0 0.00 0.00 0.00 77 1013.7
20260905205021 76 16 3.0 9.0 0.00 0.00 0.00 77 1013.9
20260905204539 76 343 2.0 9.0 0.00 0.00 0.00 77 1013.9
20260905204017 77 283 2.0 8.0 0.00 0.00 0.00 75 1013.9
20260905203519 76 36 2.0 8.0 0.00 0.00 0.00 76 1013.9
20260905203040 77 32 3.0 7.0 0.00 0.00 0.00 74 1013.9
20260905202519 78 351 2.0 8.0 0.00 0.00 0.00 71 1013.9
20260905202018 78 71 0.0 9.0 0.00 0.00 0.00 71 1014.0
20260905201542 77 38 2.0 9.0 0.00 0.00 0.00 70 1014.0
20260905201020 78 40 4.0 9.0 0.00 0.00 0.00 69 1014.0
20260905200518 78 15 1.0 5.0 0.00 0.00 0.00 70 1014.0
20260905200048 78 40 1.0 6.0 0.00 0.00 0.00 69 1014.1
20260905195521 79 0 0.0 12.0 0.00 0.00 0.00 68 1014.1
20260905195017 78 14 2.0 12.0 0.00 0.00 0.00 71 1014.2
20260905194542 78 18 3.0 12.0 0.00 0.00 0.00 72 1014.3
20260905194018 77 309 2.0 5.0 0.00 0.00 0.00 72 1014.2
20260905193518 78 0 0.0 5.0 0.00 0.00 0.00 70 1014.3
20260905193037 78 40 1.0 5.0 0.00 0.00 0.00 70 1014.4
20260905192525 78 0 0.0 3.0 0.00 0.00 0.00 72 1014.4
20260905192018 77 0 0.0 3.0 0.00 0.00 0.00 70 1014.5
20260905191544 77 56 0.0 3.0 0.00 0.00 0.00 69 1014.5
20260905191017 76 0 0.0 3.0 0.00 0.00 0.00 71 1014.7
20260905190524 75 0 0.0 5.0 0.00 0.00 0.00 75 1014.7
20260905190057 73 0 0.0 6.0 0.00 0.00 0.00 77 1014.7
20260905185517 73 29 2.0 8.0 0.00 0.00 0.00 76 1014.9
20260905185018 73 0 0.0 8.0 0.00 0.00 0.00 75 1014.9
20260905184558 73 352 1.0 8.0 0.00 0.00 0.00 75 1014.9
20260905184021 73 22 1.0 8.0 0.00 0.00 0.00 75 1014.9
20260905183520 73 13 2.0 5.0 0.00 0.00 0.00 74 1014.7
20260905183042 73 0 2.0 5.0 0.00 0.00 0.00 75 1014.7
20260905182517 73 281 1.0 6.0 0.00 0.00 0.00 73 1014.8
20260905182018 73 21 1.0 6.0 0.00 0.00 0.00 71 1014.8
20260905181540 74 36 1.0 7.0 0.00 0.00 0.00 71 1014.8
20260905181017 74 57 3.0 7.0 0.00 0.00 0.00 71 1014.9
20260905180518 73 46 0.0 5.0 0.00 0.00 0.00 71 1014.9
20260905180038 73 19 2.0 5.0 0.00 0.00 0.00 71 1014.9
20260905175518 73 0 1.0 5.0 0.00 0.00 0.00 73 1014.7
20260905175020 73 5 1.0 5.0 0.00 0.00 0.00 72 1014.7
20260905174545 73 34 1.0 5.0 0.00 0.00 0.00 72 1014.7
20260905174018 73 0 1.0 5.0 0.00 0.00 0.00 71 1014.6
20260905173519 73 38 0.0 3.0 0.00 0.00 0.00 70 1014.6
20260905173040 73 0 0.0 4.0 0.00 0.00 0.00 73 1014.6
20260905172520 73 184 1.0 4.0 0.00 0.00 0.00 71 1014.7
20260905172020 72 0 1.0 4.0 0.00 0.00 0.00 72 1014.6
20260905171540 72 0 0.0 4.0 0.00 0.00 0.00 74 1014.7
20260905171019 72 63 1.0 5.0 0.00 0.00 0.00 74 1014.6
20260905170518 72 346 2.0 5.0 0.00 0.00 0.00 74 1014.5
20260905170040 72 0 1.0 4.0 0.00 0.00 0.00 74 1014.4
20260905165518 72 0 0.0 4.0 0.00 0.00 0.00 73 1014.4
20260905165017 72 0 0.0 4.0 0.00 0.00 0.00 71 1014.4
20260905164541 72 11 0.0 4.0 0.00 0.00 0.00 71 1014.6
20260905164018 71 348 2.0 6.0 0.00 0.00 0.00 70 1014.7
20260905163520 71 5 2.0 6.0 0.00 0.00 0.00 69 1014.6
20260905163041 71 0 0.0 2.0 0.00 0.00 0.00 71 1014.5
20260905162519 71 0 0.0 2.0 0.00 0.00 0.00 71 1014.7
20260905162017 71 0 0.0 3.0 0.00 0.00 0.00 72 1014.5
20260905161538 70 0 0.0 3.0 0.00 0.00 0.00 73 1014.5
20260905161018 70 352 0.0 3.0 0.00 0.00 0.00 73 1014.6
20260905160518 69 0 0.0 0.0 0.00 0.00 0.00 74 1014.4
20260905160040 69 0 0.0 0.0 0.00 0.00 0.00 76 1014.4
20260905155520 69 0 0.0 0.0 0.00 0.00 0.00 79 1014.5
20260905155017 68 0 0.0 0.0 0.00 0.00 0.00 80 1014.5
20260905154540 68 0 0.0 0.0 0.00 0.00 0.00 81 1014.6
20260905154020 68 0 0.0 0.0 0.00 0.00 0.00 82 1014.7
20260905153521 67 0 0.0 0.0 0.00 0.00 0.00 84 1014.6
20260905153040 67 0 0.0 0.0 0.00 0.00 0.00 87 1014.5
20260905152517 66 0 0.0 0.0 0.00 0.00 0.00 90 1014.5
20260905152020 65 0 0.0 0.0 0.00 0.00 0.00 90 1014.5
20260905151543 64 0 0.0 0.0 0.00 0.00 0.00 92 1014.4
20260905151023 63 0 0.0 0.0 0.00 0.00 0.00 92 1014.5
20260905150519 62 0 0.0 0.0 0.00 0.00 0.00 92 1014.3
20260905150040 62 0 0.0 0.0 0.00 0.00 0.00 93 1014.3
20260905145518 62 0 0.0 0.0 0.00 0.00 0.00 93 1014.3
20260905145020 62 0 0.0 0.0 0.00 0.00 0.00 93 1014.2
20260905144544 61 0 0.0 0.0 0.00 0.00 0.00 93 1014.0
20260905144017 62 0 0.0 0.0 0.00 0.00 0.00 93 1014.1
20260905143517 62 0 0.0 0.0 0.00 0.00 0.00 93 1013.9
20260905143040 61 0 0.0 0.0 0.00 0.00 0.00 93 1013.9
20260905142518 61 0 0.0 0.0 0.00 0.00 0.00 93 1013.9
20260905142020 61 0 0.0 0.0 0.00 0.00 0.00 93 1013.8
20260905141543 61 0 0.0 0.0 0.00 0.00 0.00 93 1013.8
20260905141021 61 0 0.0 0.0 0.00 0.00 0.00 93 1013.8
20260905140519 61 0 0.0 0.0 0.00 0.00 0.00 93 1013.8
20260905140040 61 0 0.0 0.0 0.00 0.00 0.00 93 1013.7
20260905135517 62 0 0.0 0.0 0.00 0.00 0.00 93 1013.6
20260905135022 61 0 0.0 0.0 0.00 0.00 0.00 93 1013.6
20260905134538 61 0 0.0 0.0 0.00 0.00 0.00 93 1013.6
20260905134021 61 0 0.0 0.0 0.00 0.00 0.00 93 1013.5
20260905133516 61 0 0.0 0.0 0.00 0.00 0.00 93 1013.6
20260905133042 61 0 0.0 0.0 0.00 0.00 0.00 93 1013.4
20260905132518 61 0 0.0 0.0 0.00 0.00 0.00 93 1013.4
20260905132021 60 0 0.0 0.0 0.00 0.00 0.00 93 1013.4
20260905131556 60 0 0.0 0.0 0.00 0.00 0.00 93 1013.3
20260905131017 60 0 0.0 0.0 0.00 0.00 0.00 93 1013.2
20260905130521 60 0 0.0 0.0 0.00 0.00 0.00 93 1013.3
20260905130044 60 0 0.0 0.0 0.00 0.00 0.00 93 1013.3
20260905125516 60 0 0.0 0.0 0.00 0.00 0.00 93 1013.1
20260905125022 60 0 0.0 0.0 0.00 0.00 0.00 93 1013.3
20260905124549 60 0 0.0 0.0 0.00 0.00 0.00 93 1013.2
20260905124019 60 0 0.0 0.0 0.00 0.00 0.00 93 1013.3
20260905123519 60 0 0.0 0.0 0.00 0.00 0.00 93 1013.2
20260905123053 60 0 0.0 0.0 0.00 0.00 0.00 93 1013.1
20260905122519 60 0 0.0 0.0 0.00 0.00 0.00 93 1013.2
20260905122020 61 0 0.0 0.0 0.00 0.00 0.00 93 1013.3
20260905121540 61 0 0.0 0.0 0.00 0.00 0.00 93 1013.3
20260905121021 61 0 0.0 0.0 0.00 0.00 0.00 93 1013.3
20260905120522 61 0 0.0 0.0 0.00 0.00 0.00 93 1013.3
20260905120038 61 0 0.0 0.0 0.00 0.00 0.00 93 1013.3
20260905115521 61 0 0.0 0.0 0.00 0.00 0.00 93 1013.4
20260905115020 61 0 0.0 0.0 0.00 0.00 0.00 93 1013.3
20260905114543 61 0 0.0 0.0 0.00 0.00 0.00 93 1013.3
20260905114019 61 0 0.0 0.0 0.00 0.00 0.00 93 1013.3
20260905113518 61 0 0.0 0.0 0.00 0.00 0.00 93 1013.3
20260905113043 61 0 0.0 0.0 0.00 0.00 0.00 93 1013.2
20260905112520 61 0 0.0 0.0 0.00 0.00 0.00 92 1013.3
20260905112019 61 0 0.0 0.0 0.00 0.00 0.00 92 1013.3
20260905111550 61 0 0.0 0.0 0.00 0.00 0.00 92 1013.3
20260905111020 62 0 0.0 0.0 0.00 0.00 0.00 92 1013.4
20260905110517 62 0 0.0 0.0 0.00 0.00 0.00 92 1013.4
20260905110038 62 0 0.0 0.0 0.00 0.00 0.00 92 1013.4
20260905105520 62 0 0.0 0.0 0.00 0.00 0.00 92 1013.4
20260905105021 62 0 0.0 0.0 0.00 0.00 0.00 92 1013.5
20260905104537 62 0 0.0 0.0 0.00 0.00 0.00 92 1013.5
20260905104018 61 0 0.0 0.0 0.00 0.00 0.00 92 1013.5
20260905103525 62 0 0.0 0.0 0.00 0.00 0.00 92 1013.4
20260905103041 62 0 0.0 0.0 0.00 0.00 0.00 92 1013.5
20260905102517 62 0 0.0 0.0 0.00 0.00 0.00 92 1013.5
20260905102017 62 0 0.0 0.0 0.00 0.00 0.00 92 1013.5
20260905101542 62 0 0.0 0.0 0.00 0.00 0.00 92 1013.5
20260905101018 62 0 0.0 0.0 0.00 0.00 0.00 92 1013.5
20260905100520 62 0 0.0 0.0 0.00 0.00 0.00 92 1013.5
20260905100042 62 0 0.0 0.0 0.00 0.00 0.00 92 1013.5
20260905095517 62 0 0.0 0.0 0.00 0.00 0.00 92 1013.5
20260905095017 62 0 0.0 0.0 0.00 0.00 0.00 92 1013.5
20260905094542 62 0 0.0 0.0 0.00 0.00 0.00 92 1013.4
20260905094021 62 0 0.0 0.0 0.00 0.00 0.00 92 1013.6
20260905093520 62 0 0.0 0.0 0.00 0.00 0.00 92 1013.5
20260905093042 62 0 0.0 0.0 0.00 0.00 0.00 92 1013.5
20260905092516 62 0 0.0 0.0 0.00 0.00 0.00 92 1013.5
20260905092022 62 0 0.0 0.0 0.00 0.00 0.00 92 1013.6
20260905091538 63 0 0.0 0.0 0.00 0.00 0.00 92 1013.6
20260905091021 62 0 0.0 0.0 0.00 0.00 0.00 92 1013.5
20260905090524 62 0 0.0 0.0 0.00 0.00 0.00 92 1013.7
20260905090041 62 0 0.0 0.0 0.00 0.00 0.00 92 1013.6
20260905085521 62 0 0.0 0.0 0.00 0.00 0.00 92 1013.5
20260905085019 62 0 0.0 0.0 0.00 0.00 0.00 92 1013.6
20260905084559 62 0 0.0 0.0 0.00 0.00 0.00 92 1013.7
20260905084020 63 0 0.0 0.0 0.00 0.00 0.00 92 1013.7
20260905083518 62 0 0.0 0.0 0.00 0.00 0.00 92 1013.8
20260905083039 62 0 0.0 0.0 0.00 0.00 0.00 92 1014.1
20260905082521 62 0 0.0 0.0 0.00 0.00 0.00 92 1014.1
20260905082019 62 0 0.0 0.0 0.00 0.00 0.00 92 1014.1
20260905081541 62 0 0.0 0.0 0.00 0.00 0.00 92 1014.1
20260905081020 62 0 0.0 0.0 0.00 0.00 0.00 91 1014.1
20260905080521 63 0 0.0 0.0 0.00 0.00 0.00 92 1014.2
20260905080041 63 0 0.0 0.0 0.00 0.00 0.00 91 1014.2
20260905075520 63 0 0.0 0.0 0.00 0.00 0.00 91 1014.3
20260905075019 62 0 0.0 0.0 0.00 0.00 0.00 91 1014.3
20260905074540 63 0 0.0 0.0 0.00 0.00 0.00 91 1014.4
20260905074019 63 0 0.0 0.0 0.00 0.00 0.00 91 1014.4
20260905073521 63 0 0.0 0.0 0.00 0.00 0.00 91 1014.4